Location: Peach Mountain Observatory
(42.3967°N, 83.9367°W)
Time: 15:36:27
(UTC-04:00)

deb Explorer IX - Pass Details

Date: 21 January 2020
Orbit: 548 x 1100 km, 38.8° (Epoch: 09 April)

Event Time Altitude Azimuth Distance (km) Brightness Sun altitude
Rises 02:34:05 0° 266° (W) 3,905 - -58.2°
Reaches altitude 10° 02:36:56 10° 264° (W) 2,929 - -57.8°
Maximum altitude 02:44:03 65° 185° (S) 1,119 - -56.7°
Drops below altitude 10° 02:50:30 10° 104° (ESE) 2,654 - -55.7°
Sets 02:52:58 0° 102° (ESE) 3,519 - -55.3°
